EW9960 Weather Reports


Display with metric or nautical units.
time (UTC)temp
F
wind
direction
speed
MPH
gust
MPH
rain 1hr
in
rain 24hr
in
rain mn
in
humidity
%
barometer
mb
20260505074531 65 222 0.0 1.0 0.00 0.00 0.00 64 1007.5
20260505073100 66 228 0.0 2.0 0.00 0.00 0.00 63 1007.7
20260505071538 66 191 0.0 4.0 0.00 0.00 0.00 62 1007.5
20260505070104 66 197 0.0 8.0 0.00 0.00 0.00 62 1007.6
20260505064527 66 193 0.0 3.0 0.00 0.00 0.00 63 1007.5
20260505063053 66 193 0.0 2.0 0.00 0.00 0.00 62 1007.4
20260505061512 67 186 0.0 4.0 0.00 0.00 0.00 61 1007.1
20260505060023 67 359 0.0 3.0 0.00 0.00 0.00 60 1007.2
20260505054543 67 194 0.0 3.0 0.00 0.00 0.00 60 1007.0
20260505053053 68 97 0.0 4.0 0.00 0.00 0.00 59 1006.7
20260505051559 68 189 0.0 6.0 0.00 0.00 0.00 59 1006.7
20260505041546 67 234 0.0 1.0 0.00 0.00 0.00 60 1006.7
20260505040104 67 179 0.0 5.0 0.00 0.00 0.00 60 1007.0
20260505040001 67 262 0.0 5.0 0.00 0.00 0.00 60 1007.0
20260505034536 68 171 0.0 2.0 0.00 0.00 0.00 59 1007.1
20260505033006 68 179 0.0 4.0 0.00 0.00 0.00 58 1006.9
20260505031543 68 259 0.0 4.0 0.00 0.00 0.00 58 1007.0
20260505024524 68 190 0.0 3.0 0.00 0.00 0.00 57 1006.6
20260505023053 69 200 0.0 4.0 0.00 0.00 0.00 56 1006.5
20260505021523 69 278 0.0 4.0 0.00 0.00 0.00 56 1006.3
20260505020048 69 269 0.0 2.0 0.00 0.00 0.00 56 1006.2
20260505014540 70 185 0.0 3.0 0.00 0.00 0.00 54 1006.1
20260505013015 70 181 1.0 4.0 0.00 0.00 0.00 54 1005.9
20260505011547 71 187 0.0 3.0 0.00 0.00 0.00 52 1005.7
20260505010016 72 176 0.0 6.0 0.00 0.00 0.00 50 1005.6
20260505004519 72 198 0.0 5.0 0.00 0.00 0.00 49 1005.6
20260505003047 73 231 0.0 11.0 0.00 0.00 0.00 48 1005.5
20260505001557 74 206 0.0 6.0 0.00 0.00 0.00 47 1005.3
20260505000042 74 212 1.0 7.0 0.00 0.00 0.00 47 1005.2
20260504234507 75 215 1.0 5.0 0.00 0.00 0.00 47 1005.2
20260504233050 75 187 1.0 8.0 0.00 0.00 0.00 44 1005.4
20260504231520 76 356 1.0 8.0 0.00 0.00 0.00 43 1005.7
20260504230109 77 262 0.0 5.0 0.00 0.00 0.00 42 1005.7
20260504224524 78 265 1.0 6.0 0.00 0.00 0.00 41 1005.7
20260504223038 77 176 1.0 9.0 0.00 0.00 0.00 45 1005.7
20260504221547 76 214 0.0 6.0 0.00 0.00 0.00 44 1005.9
20260504220005 75 321 2.0 8.0 0.00 0.00 0.00 45 1006.0
20260504214541 72 264 1.0 7.0 0.00 0.00 0.00 53 1005.7
20260504213049 67 118 2.0 5.0 0.00 0.00 0.00 63 1005.7
20260504211506 69 268 0.0 1.0 0.00 0.00 0.00 51 1008.6
20260504210040 69 268 0.0 1.0 0.00 0.00 0.00 51 1008.5
20260504204513 70 108 0.0 3.0 0.00 0.00 0.00 52 1008.4
20260504203046 71 52 0.0 1.0 0.00 0.00 0.00 51 1008.6
20260504201514 72 65 0.0 2.0 0.00 0.00 0.00 48 1008.6
20260504200100 72 246 0.0 3.0 0.00 0.00 0.00 48 1008.6
20260504194509 73 349 0.0 4.0 0.00 0.00 0.00 46 1008.4
20260504193019 74 243 0.0 7.0 0.00 0.00 0.00 46 1008.2
20260504191525 74 146 0.0 3.0 0.00 0.00 0.00 46 1008.3
20260504190039 75 177 1.0 7.0 0.00 0.00 0.00 44 1008.2
20260504184544 75 60 0.0 5.0 0.00 0.00 0.00 52 1007.5
20260504183023 74 112 0.0 5.0 0.00 0.00 0.00 55 1007.5
20260504181544 73 86 0.0 4.0 0.00 0.00 0.00 55 1007.8
20260504180020 72 190 0.0 2.0 0.00 0.00 0.00 57 1008.1
20260504174554 72 278 0.0 2.0 0.00 0.00 0.00 56 1008.3
20260504173021 73 193 0.0 1.0 0.00 0.00 0.00 56 1008.6
20260504171526 73 241 0.0 3.0 0.00 0.00 0.00 53 1009.1
20260504081603 58 63 0.0 0.0 0.00 0.00 0.00 75 1012.1